Tracking 19431 objects as of 18-Dec-2018
HD Live streaming from Space Station
objects crossing your sky now

EXOCUBE

Track EXOCUBE now!
10-day predictions
EXOCUBE is classified as:


NORAD ID: 40380
Int'l Code: 2015-003E
Perigee: 436.3 km
Apogee: 632.2 km
Inclination: 99.1 °
Period: 95.2 minutes
Semi major axis: 6905 km
RCS: Unknown
Launch date: January 31, 2015
Source: United States (US)
Launch site: AIR FORCE WESTERN TEST RANGE (AFWTR)

Uplink (MHz):
Downlink (MHz): 437.270
Beacon (MHz): 437.270
Mode: 9600bps FSK CW
Call sign: KK6HGC XO3
Status: Active

aabbcc
Your satellite tracking list
Your tracking list is empty




NASA's NSSDC Master Catalog

Two Line Element Set (TLE):
1 40380U 15003E   18352.34399766  .00001686  00000-0  79609-4 0  9996
2 40380  99.0933 283.2305 0141809   2.5704 357.6219 15.12987078213797
Source of the keplerian elements: Caltech